Regional Weather Roundup
Issued by NWS

Home | Current Version | Previous Version | Graphics & Text | Print | Product List | Glossary On
Versions: 1 2 3 4 5 6 7 8 9 10 11 12 13 14 15 16 17 18 19 20 21 22 23 24 25 26 27
000
ASUS45 KCYS 250910
RWRWY

WYOMING REGIONAL WEATHER ROUNDUP
NATIONAL WEATHER SERVICE CHEYENNE WY
200 AM MST SAT FEB 25 2017

NOTE:  "FAIR" INDICATES FEW OR NO CLOUDS BELOW 12,000 FEET
WITH NO SIGNIFICANT WEATHER AND/OR OBSTRUCTIONS TO VISIBILITY.

WYZ001-251000-
YELLOWSTONE NATIONAL PARK

CITY           SKY/WX    TMP DP  RH WIND       PRES   REMARKS
LK YELLOWSTONE   N/A      1  -1  91 CALM      29.91F
W YELLOWSTONE  NOT AVBL

$$
WYZ002>013-054>058-071-098>099-251000-
NORTHERN WYOMING

CITY           SKY/WX    TMP DP  RH WIND       PRES   REMARKS
JACKSON        FAIR       9   3  78 SW3       29.99F
CODY           FAIR      17   6  62 W7        29.96F WCI   8
GREYBULL       CLOUDY    26  22  84 W3        29.99F
WORLAND        CLOUDY    20  16  84 S6        29.99S WCI  12
SHERIDAN       CLOUDY    22  15  75 W8        29.98S WCI  12
BUFFALO        FAIR      16   9  74 CALM      29.94S
GILLETTE       FAIR      19  15  84 W10       29.93F WCI   7
HULETT         CLOUDY    23  16  74 SW10      29.93F WCI  12
NEWCASTLE      FAIR      14  10  85 N5        29.97S WCI   6

$$
WYZ014>020-022>026-101>103-251000-
CENTRAL WYOMING

CITY           SKY/WX    TMP DP  RH WIND       PRES   REMARKS
BIG PINEY      FAIR      -7 -11  83 NE3       29.99F
PINEDALE       FAIR      -6  -9  84 CALM      29.99F
DUBOIS         FAIR       3  -4  72 NW17      29.90F WCI -17
LANDER         FAIR       8   1  73 W3        29.95S
RIVERTON       FAIR      11   1  64 W18       29.96S WCI  -7
CASPER         FAIR      12   6  77 SW10      29.95S WCI  -1
DOUGLAS        FOG       -1  -5  82 CALM      29.95F VSB 1/2

$$
WYZ021-027>030-104>119-251000-
SOUTHERN WYOMING

CITY           SKY/WX    TMP DP  RH WIND       PRES   REMARKS
EVANSTON       FAIR       6   0  76 S7        30.00F WCI  -6
KEMMERER       LGT SNOW N/A N/A N/A W3        29.99  VSB 1
FORT BRIDGER   FAIR      11   3  69 SW15      30.03F WCI  -5
ROCK SPRINGS   FAIR       6   0  76 W13       30.00F WCI -10
DIXON            N/A     -1  -6  81 NE3       30.07R
RAWLINS        FAIR       9   2  73 W28       29.95S WCI -13
SARATOGA       CLOUDY    10   3  72 SW9       29.97S WCI  -2
LARAMIE        FAIR      10   0  63 W14       29.87F WCI  -6
CHEYENNE       FAIR      12   3  67 W10       29.91F WCI  -1
TORRINGTON     FOG        4   0  83 NW3       29.98F VSB 1/4
PINE BLUFFS    PTSUNNY    7   3  85 MISG      29.96F

$$




USA.gov is the U.S. government's official web portal to all federal, state and local government web resources and services.